Location: Seattle
(47.6064°N, 122.3308°W)
Time: 05:44:49
(UTC-08:00)

S-56A Canister/Altair - Pass Details

Date: 27 November 2020
Orbit: 633 x 2499 km, 38.9° (Epoch: 23 January)

Event Time Altitude Azimuth Distance (km) Brightness Sun altitude
Rises 22:14:32 0° 257° (WSW) 4,901 11.9 -56.6°
Enters shadow 22:17:15 - 253° (WSW) 3,990 11.3 -56.9°
Reaches altitude 10° 22:18:25 10° 251° (WSW) 3,597 - -57.1°
Maximum altitude 22:26:21 42° 185° (S) 1,502 - -58.0°
Drops below altitude 10° 22:31:51 10° 116° (ESE) 2,484 - -58.6°
Sets 22:34:05 0° 108° (ESE) 3,261 - -58.9°
